Tracking 19717 objects as of 25-Jun-2019
HD Live streaming from Space Station
objects crossing your sky now

DELTA 1 DEB

Track DELTA 1 DEB now!
10-day predictions


NORAD ID: 12177
Int'l Code: 1978-026S
Perigee: 813.6 km
Apogee: 1,041.0 km
Inclination: 98.7 °
Period: 103.4 minutes
Semi major axis: 7298 km
RCS: 0.0985 m2 (small)
Launch date: March 5, 1978
Source: United States (US)
Launch site: AIR FORCE WESTERN TEST RANGE (AFWTR)

Note: This is SATELLITE DEBRIS
aabbcc
Your satellite tracking list
Your tracking list is empty




NASA's NSSDC Master Catalog

Two Line Element Set (TLE):
1 12177U 78026S   19175.49627273  .00000044  00000-0  60444-4 0  9994
2 12177  98.7054 358.9816 0155838 327.4522  85.3184 13.92416895945115
Source of the keplerian elements: AFSPC